Regional Weather Roundup
Issued by NWS Sioux Falls, SD

Home | Current Version | Previous Version | Text Only | Print | Product List | Glossary On
Versions: 1 2 3 4 5 6 7 8 9 10 11 12 13 14 15 16 17 18 19 20 21 22 23 24 25 26 27 28 29 30 31 32 33 34 35 36 37 38 39 40 41 42 43 44 45 46 47 48 49 50
000
ASUS43 KFSD 300402
RWRFSD

WEATHER ROUNDUP FOR SE SOUTH DAKOTA/SW MINNESOTA/NW IOWA
NATIONAL WEATHER SERVICE SIOUX FALLS SD
1100 PM CDT MON AUG 29 2016

NOTE: "FAIR" INDICATES FEW OR NO CLOUDS BELOW 12,000 FEET WITH NO
SIGNIFICANT WEATHER AND OR OBSTRUCTIONS TO VISIBILITY.


SDZ038>040-050-052>070-300500-
SOUTHEAST SOUTH DAKOTA

CITY           SKY/WX    TMP DP  RH WIND       PRES   REMARKS
CHAMBERLAIN    PTCLDY    75  68  77 E3        30.16R
HURON          PTCLDY    75  68  78 SE5       30.17R
MADISON        FAIR      68  68 100 S8        30.19F
MITCHELL       PTCLDY    73  68  84 S9        30.17R
SIOUX FALLS    CLOUDY    72  68  87 CALM      30.19F
WINNER         FAIR      74  63  68 CALM      30.17R
YANKTON        CLOUDY    72  64  78 SE16      30.18S
$$

MNZ071-072-080-081-089-090-097-098-300500-
SOUTHWEST MINNESOTA

CITY           SKY/WX    TMP DP  RH WIND       PRES   REMARKS
FAIRMONT       CLOUDY    69  67  93 S6        30.19S
JACKSON        PTCLDY    72  68  88 SW5       30.20F
LUVERNE        MOCLDY    70  64  83 CALM      30.20S
MARSHALL       CLEAR     74  70  87 SW10      30.14F
MONTEVIDEO     PTCLDY    73  70  88 W3        30.15S
REDWOOD FALLS  CLEAR     75  69  81 SW10      30.13F
TRACY          CLOUDY    74  70  88 SW10      30.16F
WINDOM         PTCLDY    73  70  88 S6        30.19S
WORTHINGTON    CLOUDY    72  70  93 S7        30.21S
$$

IAZ001>003-012>014-020>022-031-032-NEZ013-014-SDZ071-300500-
NORTHWEST IOWA

CITY           SKY/WX    TMP DP  RH WIND       PRES   REMARKS
CHEROKEE       CLOUDY    70  69  94 S5        30.22S
DENISON        CLOUDY    68  66  94 CALM      30.21R
ESTHERVILLE    CLOUDY    69  69 100 S5        30.20R
LE MARS        CLOUDY    72  66  83 SW9G16    30.22R
ORANGE CITY    CLOUDY    72  68  88 SW7       30.21F
SHELDON        CLOUDY    73  72  94 S15       30.19S
SIOUX CITY     LGT RAIN  71  67  87 SW7       30.20F
SPENCER        CLOUDY    71  68  90 SW3       30.21R
STORM LAKE     CLOUDY    70  66  88 W10       30.23R
$$

ABBREVIATIONS USED IN REMARKS
   TC - TEMPERATURE IN CELSIUS
  WCI - WIND CHILL INDEX
   HX - HEAT INDEX
  VSB - VISIBILITY





USA.gov is the U.S. government's official web portal to all federal, state and local government web resources and services.